Location: Borowian Kolonie
(50.5742°N, 18.6245°E)
Time: 01:46:01
(UTC+00:00)

Daily predictions for brighter satellites

Satellite Brightness Start Highest point End
(mag) Time Altitude Azimuth Time Altitude Azimuth Time Altitude Azimuth
Cosmos 1674 3.6 00:00:27 10° N 00:04:01 42° ENE 00:05:00 34° ESE
Cosmos 1634 Rocket 4.3 00:05:45 31° SSE 00:08:46 62° E 00:14:55 10° NNE
Cosmos 1536 Rocket 3.4 00:06:07 10° NNW 00:10:29 83° W 00:11:19 58° S
Cosmos 2219 Rocket 3.0 00:05:44 10° NW 00:10:41 32° WSW 00:11:13 31° WSW
Cosmos 1464 Rocket 4.5 00:08:47 33° SW 00:11:16 49° WNW 00:17:18 10° N
Cosmos 1437 3.6 00:09:20 10° NNW 00:11:26 39° NW 00:11:26 39° NW
Lacrosse 4 Rocket 2.5 00:13:01 28° W 00:14:32 37° NW 00:18:28 10° NNE
IRAS Rocket 4.2 00:14:44 33° SSE 00:17:22 86° WSW 00:23:01 10° NNW
FALCON 9 DEB 3.6 00:15:50 19° WNW 00:18:11 60° N 00:21:39 10° E
Cosmos 1354 Rocket 4.4 00:16:38 35° WSW 00:18:38 55° WNW 00:23:54 10° NNE
SL-4 R/B 1.4 00:22:19 87° SSE 00:22:19 87° SSE 00:25:42 10° ESE
SL-16 R/B 2.8 00:17:05 10° NNW 00:22:43 56° NE 00:28:18 10° SE
Meteor 2-5 Rocket 4.1 00:19:44 10° N 00:25:22 60° ENE 00:29:33 18° SSE
COSMOS 2428 3.8 00:24:01 10° NW 00:28:42 26° WSW 00:29:12 26° WSW
SL-16 R/B 2.5 00:28:37 29° S 00:32:03 74° WSW 00:38:20 10° NNW
NPP 3.8 00:28:52 10° NNE 00:34:15 65° ESE 00:36:53 30° S
CZ-2D R/B 2.2 00:29:57 10° NNE 00:35:29 77° ESE 00:38:05 33° S
BREEZE-M TANK 3.0 00:36:08 37° SSE 00:36:08 37° SSE 00:40:07 10° ESE
Cosmos 1680 Rocket 4.2 00:31:01 10° NNW 00:36:11 55° ENE 00:41:17 10° SE
USA 267 3.5 00:30:14 10° ESE 00:36:45 73° NNE 00:43:17 10° WNW
CENTAUR R/B 4.3 00:30:54 10° WNW 00:36:56 33° NNW 00:43:55 10° NE
Cosmos 1607 4.1 00:32:25 10° NW 00:38:54 80° NE 00:45:24 10° SE
GEOS 3 Rocket 3.8 00:34:31 10° NE 00:39:56 74° NW 00:42:46 29° WSW
Cosmos 1428 Rocket 4.5 00:36:26 10° NNW 00:42:39 70° W 00:46:04 28° S
KORONAS-FOTON 3.7 00:39:10 10° NNW 00:42:56 73° W 00:43:44 52° SSW
Okean 2 Rocket 3.9 00:41:46 32° WSW 00:42:59 38° WNW 00:47:12 10° N
AQUA 4.1 00:38:34 10° NNE 00:43:19 63° ESE 00:45:33 31° S
ADEOS II 3.1 00:39:00 10° NNE 00:43:58 41° E 00:47:27 18° SSE
Cosmos 1092 Rocket 4.3 00:39:21 10° NNW 00:45:20 48° W 00:48:01 30° SW
Helios 1B rocket 4.1 00:44:21 10° N 00:47:31 22° WNW 00:48:49 19° W
Cosmos 1980 4.1 00:42:44 10° NW 00:48:02 41° WSW 00:49:51 32° SSW
Cosmos 2333 Rocket 3.9 00:44:44 10° WNW 00:48:03 16° W 00:48:11 16° W
Cosmos 2297 Rocket 2.2 00:45:36 33° SSW 00:48:16 80° ESE 00:53:57 10° NNE
IRS-1D 4.1 00:43:26 10° NNE 00:48:20 50° E 00:51:26 22° SSE
Cosmos 2219 3.1 00:45:50 33° SSW 00:48:28 89° WNW 00:54:08 10° NNE
Uosat 12 SS-18 rocket 4.3 00:48:34 36° SSW 00:50:32 72° SE 00:55:00 10° NE
Cosmos 1777 Rocket 4.1 00:49:00 33° SW 00:51:21 69° WNW 00:56:41 10° NNE
Cosmos 1766 3.3 00:51:10 38° S 00:52:33 72° E 00:56:27 10° NNE
Cosmos 1655 Rocket 4.2 00:47:24 10° N 00:53:42 72° ENE 00:59:34 12° SSE
UNK 4.1 00:52:22 36° SSW 00:53:49 48° W 00:58:22 10° NNW
Cosmos 2237 Rocket 2.8 00:52:52 10° NW 00:58:02 37° WSW 00:59:51 29° SW
CZ-4B R/B 3.4 00:57:27 10° NNE 01:02:15 72° ESE 01:04:55 26° S
Cosmos 1626 2.1 00:58:49 10° N 01:02:33 81° E 01:04:26 27° SSE
Okean 1 Rocket 3.1 01:01:02 35° SSW 01:02:42 66° WNW 01:07:04 10° N
CZ-4C R/B 3.8 01:04:19 32° W 01:04:24 32° W 01:07:37 10° NNW
Meteor 1-28 Rocket 4.4 01:01:46 10° SE 01:05:22 43° ENE 01:09:00 10° N
Cosmos 923 Rocket 4.0 01:00:57 10° NNW 01:06:18 73° WSW 01:10:51 14° SSE
Cosmos 1470 4.1 01:06:21 15° SSE 01:09:13 36° E 01:12:53 10° NNE
SL-08 R/B 3.8 01:05:54 10° SSE 01:10:47 64° ENE 01:15:43 10° N
Cosmos 2098 Rocket 3.7 01:07:50 10° N 01:12:25 70° E 01:18:13 10° SSE
Cosmos 158 Rocket 4.0 01:09:16 10° NNW 01:14:39 79° WSW 01:20:02 10° SSE
Meteor 2-19 Rocket 4.4 01:16:52 10° NNW 01:23:01 71° W 01:28:27 14° S
Cosmos 1805 3.9 01:24:26 28° SW 01:25:57 41° WNW 01:29:41 10° N
SL-14 R/B 3.3 01:22:16 10° NNW 01:26:11 61° W 01:28:23 24° S
DNEPR-1 R/B 4.5 01:22:19 10° NW 01:27:38 38° WSW 01:31:05 16° S
SJ 16-02 1.3 01:25:10 25° SSW 01:27:46 88° ESE 01:32:13 10° NNE
ERBS 2.7 01:25:30 10° WNW 01:28:32 35° SW 01:31:34 10° SSE
Cosmos 1943 4.3 01:24:05 10° NNW 01:29:31 47° NE 01:34:55 10° SE
IRS-P3 4.2 01:26:52 10° NNE 01:32:15 77° ESE 01:36:40 15° S
Resurs 1-4 Rocket 2.9 01:31:16 10° N 01:36:06 37° WNW 01:39:24 18° WSW
Cosmos 1626 Rocket 4.2 01:31:51 10° N 01:36:08 57° ENE 01:40:22 10° SSE
Cosmos 2227 Rocket 2.5 01:33:34 20° SW 01:37:25 57° NW 01:43:02 10° NNE
Cosmos 1455 Rocket 3.1 01:34:24 18° S 01:37:40 88° E 01:42:09 10° N
Cosmos 1674 4.4 01:36:46 10° NW 01:39:13 17° W 01:39:47 16° W
Cosmos 1758 3.6 01:37:38 14° S 01:41:02 66° E 01:45:02 10° NNE
SeaSat 1 4.4 01:38:08 10° NE 01:42:02 23° ESE 01:45:54 10° SSE
Cosmos 1892 Rocket 3.9 01:38:41 10° NNW 01:42:59 47° W 01:46:08 17° SSW
Cosmos 1733 4.0 01:42:54 22° SW 01:44:46 36° WNW 01:48:21 10° N
USA 215 3.3 01:39:25 10° ENE 01:46:00 78° SE 01:51:29 16° SW
Landsat 5 4.5 01:45:38 10° SE 01:49:22 46° ENE 01:53:16 10° N
CZ-2C R/B 4.3 01:46:21 10° NNE 01:49:56 33° E 01:53:25 10° SSE
ATLAS 3B R/B 4.3 01:44:27 10° WNW 01:50:07 29° NNW 01:55:53 10° NE
Cosmos 1461 3.3 01:47:03 18° SSW 01:50:11 64° SE 01:54:44 10° NE
CZ-2D R/B 4.0 01:46:22 10° NNE 01:50:24 54° E 01:54:19 10° S
Cosmos 724 4.4 01:45:05 10° NW 01:51:06 90° W 01:57:13 10° SE
Lacrosse 4 Rocket 4.1 01:53:06 10° NW 01:54:23 11° NNW 01:55:41 10° N
FALCON 9 DEB 3.2 01:51:50 10° WNW 01:55:16 55° SSW 01:58:40 10° SE
Cosmos 1340 Rocket 2.7 01:54:19 14° SSW 01:57:41 84° WNW 02:01:41 10° N
Cosmos 2082 3.8 01:53:29 17° SW 01:57:55 65° WNW 02:03:32 10° NNE
Cosmos 2112 Rocket 4.5 01:55:31 10° NW 02:00:23 40° WSW 02:05:12 10° S
SL-4 R/B 2.4 01:58:34 10° W 02:01:33 27° SSW 02:04:29 10° SSE
ERS-2 2.9 01:59:00 10° SSE 02:02:33 55° ENE 02:06:09 10° N
Cosmos 1953 2.8 02:00:05 10° S 02:04:01 60° E 02:08:02 10° NNE
Meteor 1-24 Rocket 4.5 02:00:00 10° NNW 02:04:47 31° W 02:08:55 12° SSW
SL-16 R/B 3.0 02:01:41 10° NW 02:06:33 30° WSW 02:11:22 10° SSW
Cosmos 1726 2.3 02:04:27 10° S 02:08:07 74° E 02:11:49 10° NNE
Cosmos 1937 Rocket 3.6 02:06:56 11° SSW 02:12:04 89° WNW 02:17:26 10° NNE
ARIANE 5 R/B 2.6 02:07:25 10° NNE 02:12:38 71° WNW 02:17:50 10° SSW
H-2A R/B 1.9 02:10:22 10° SSE 02:14:29 88° WSW 02:18:37 10° NNW
CZ-2D R/B 3.8 02:10:53 10° N 02:14:58 22° NW 02:19:04 10° WSW
IDEFIX/ARIANE 42P 2.6 02:10:21 10° NNE 02:15:35 86° ESE 02:20:48 10° SSW
Cosmos 1898 Rocket 3.6 02:11:41 12° SW 02:16:28 64° WNW 02:21:40 10° NNE
SL-16 R/B 4.2 02:13:43 11° WSW 02:16:44 15° W 02:20:04 10° NW
USA 267 3.4 02:13:39 10° SSE 02:19:59 51° SW 02:26:21 10° WNW
NOSS 3-1 (C) 3.4 02:17:24 11° SW 02:22:45 85° SE 02:29:19 10° NE
ADEOS II 3.0 02:18:52 10° N 02:23:37 35° WNW 02:28:20 10° SW
Cosmos 1544 Rocket 4.0 02:20:01 10° SSW 02:24:16 46° WNW 02:28:36 10° N
CZ-4C R/B 2.8 02:24:00 10° S 02:27:11 62° WSW 02:30:29 10° NNW
Cosmos 990 Rocket 4.4 02:23:20 11° SW 02:28:13 49° WNW 02:33:16 10° NNE
Timation 1 Rocket 4.4 02:23:16 10° SSW 02:29:14 88° WNW 02:35:15 10° NNE
Cosmos 2263 Rocket 2.5 02:25:03 10° SSW 02:30:34 68° ESE 02:36:07 10° NNE
Cosmos 1553 Rocket 4.4 02:24:44 10° S 02:30:43 66° E 02:36:47 10° NNE
CZ-4B R/B 3.1 02:27:43 10° SE 02:30:47 37° ENE 02:33:47 10° N
Cosmos 2297 Rocket 3.7 02:28:19 10° W 02:32:59 25° NW 02:37:40 10° NNE
Cosmos 1703 3.3 02:29:44 10° N 02:33:44 88° ENE 02:37:42 10° S
Cosmos 372 Rocket 4.3 02:29:45 10° SSW 02:34:56 72° ESE 02:40:11 10° NNE
Meteor 2-10 4.2 02:30:34 10° SSW 02:35:59 68° WNW 02:41:39 10° N
Cosmos 1745 Rocket 4.4 02:31:15 10° N 02:37:35 71° ENE 02:43:48 10° SSE
NOSS 2-3 (D) 4.1 02:34:12 10° SSW 02:38:27 63° SE 02:43:32 10° NE
Cosmos 1602 Rocket 3.9 02:36:47 10° NNW 02:40:57 43° W 02:45:03 10° SSW
CZ-2C R/B 3.1 02:39:20 10° NNE 02:43:49 53° E 02:48:19 10° S
SAR-Lupe-4 4.2 02:41:20 10° SSE 02:44:51 61° ENE 02:48:25 10° N
Cosmos 1470 4.2 02:42:11 10° WSW 02:45:23 23° WNW 02:48:37 10° NNW
Cosmos 1603 4.0 02:40:49 10° NW 02:46:20 48° WSW 02:51:47 10° S
